ITY108 LIRF-EHAM

Flight info

Callsign ITY108
Flight time 2h 4m
Altitude 38000
Route SOVAN DCT AMTEL DCT BEXOR DCT SOTOV DCT IRBIR DCT ASPAT DCT MASEK DCT MAPOX DCT NORKU
Aircraft A21N/M-SDE3FGHIRWY/LB1

Departure

Time 2026-05-08 06:32
Airport Rome–Fiumicino Leonardo da Vinci International Airport (LIRF)

Arrival

Time 2026-05-08 08:37
Airport Amsterdam Airport Schiphol (EHAM)
Time Latitude Longitude Altitude Speed Heading
2026-05-08 05:55 41.79924 12.26622 23 ft 0 kts 250°
2026-05-08 06:26 41.79923 12.26621 23 ft 0 kts 250°
2026-05-08 06:27 41.79921 12.26608 23 ft 2 kts 263°
2026-05-08 06:27 41.79926 12.26578 23 ft 4 kts 291°
2026-05-08 06:27 41.79948 12.26545 23 ft 5 kts 330°
2026-05-08 06:27 41.79989 12.26525 23 ft 6 kts 338°
2026-05-08 06:28 41.80036 12.26497 23 ft 8 kts 336°
2026-05-08 06:28 41.80098 12.26463 23 ft 10 kts 338°
2026-05-08 06:28 41.80177 12.26425 23 ft 13 kts 341°
2026-05-08 06:28 41.80275 12.26408 23 ft 14 kts 347°
2026-05-08 06:29 41.80372 12.26371 23 ft 14 kts 359°
2026-05-08 06:29 41.80445 12.26449 23 ft 14 kts 68°
2026-05-08 06:29 41.80485 12.26591 23 ft 18 kts 69°
2026-05-08 06:29 41.80533 12.26761 23 ft 20 kts 70°
2026-05-08 06:30 41.80579 12.26935 23 ft 19 kts 69°
2026-05-08 06:30 41.80628 12.27038 23 ft 12 kts 29°
2026-05-08 06:30 41.80711 12.27061 23 ft 12 kts
2026-05-08 06:30 41.80800 12.27055 23 ft 12 kts 342°
2026-05-08 06:31 41.80885 12.27010 23 ft 13 kts 339°
2026-05-08 06:31 41.80956 12.26939 23 ft 13 kts 270°
2026-05-08 06:31 41.80930 12.26818 23 ft 16 kts 249°
2026-05-08 06:31 41.80822 12.26429 23 ft 80 kts 249°
2026-05-08 06:32 41.80551 12.25448 23 ft 141 kts 248°
2026-05-08 06:32 41.80158 12.23997 119 ft 181 kts 250°
2026-05-08 06:32 41.79739 12.22400 649 ft 184 kts 250°
2026-05-08 06:32 41.79275 12.20818 1393 ft 182 kts 247°
2026-05-08 06:33 41.79037 12.19199 1985 ft 186 kts 280°
2026-05-08 06:33 41.79665 12.17629 2403 ft 200 kts 310°
2026-05-08 06:33 41.80616 12.16215 2900 ft 211 kts 313°
2026-05-08 06:33 41.81613 12.14743 3566 ft 215 kts 311°
2026-05-08 06:34 41.82585 12.13224 4253 ft 217 kts 310°
2026-05-08 06:34 41.83531 12.11682 4906 ft 219 kts 310°
2026-05-08 06:34 41.84663 12.10335 5530 ft 221 kts 330°
2026-05-08 06:34 41.86137 12.09602 5971 ft 233 kts 344°
2026-05-08 06:35 41.87774 12.09016 6209 ft 256 kts 346°
2026-05-08 06:35 41.89562 12.08398 6615 ft 274 kts 345°
2026-05-08 06:35 41.91440 12.07730 7177 ft 282 kts 345°
2026-05-08 06:35 41.93319 12.07043 7869 ft 286 kts 344°
2026-05-08 06:36 41.95267 12.06399 8565 ft 289 kts 348°
2026-05-08 06:36 41.97240 12.06002 9212 ft 292 kts 354°
2026-05-08 06:36 41.99270 12.05777 9854 ft 295 kts 355°
2026-05-08 06:36 42.01332 12.05582 10425 ft 300 kts 356°
2026-05-08 06:37 42.03468 12.05383 10749 ft 314 kts 356°
2026-05-08 06:37 42.05636 12.05176 11279 ft 318 kts 356°
2026-05-08 06:37 42.07858 12.04957 11954 ft 320 kts 356°
2026-05-08 06:37 42.10063 12.04738 12631 ft 321 kts 356°
2026-05-08 06:38 42.12306 12.04518 13303 ft 322 kts 356°
2026-05-08 06:38 42.14524 12.04302 13947 ft 324 kts 357°
2026-05-08 06:38 42.16793 12.04081 14557 ft 327 kts 356°
2026-05-08 06:38 42.19049 12.03759 15142 ft 331 kts 353°
2026-05-08 06:39 42.21327 12.03276 15721 ft 334 kts 352°
2026-05-08 06:39 42.23641 12.02755 16251 ft 338 kts 351°
2026-05-08 06:39 42.25968 12.02227 16742 ft 342 kts 351°
2026-05-08 06:39 42.28340 12.01690 17224 ft 347 kts 351°
2026-05-08 06:40 42.30729 12.01149 17686 ft 351 kts 351°
2026-05-08 06:40 42.33149 12.00603 18122 ft 356 kts 351°
2026-05-08 06:40 42.35610 12.00049 18575 ft 360 kts 350°
2026-05-08 06:40 42.38075 11.99495 19019 ft 364 kts 350°
2026-05-08 06:41 42.40570 11.98934 19449 ft 368 kts 350°
2026-05-08 06:41 42.43118 11.98359 19882 ft 372 kts 350°
2026-05-08 06:41 42.45655 11.97787 20328 ft 374 kts 349°
2026-05-08 06:41 42.48245 11.97204 20779 ft 377 kts 349°
2026-05-08 06:42 42.50808 11.96624 21208 ft 379 kts 349°
2026-05-08 06:42 42.53434 11.96030 21638 ft 381 kts 349°
2026-05-08 06:42 42.56036 11.95440 22056 ft 384 kts 349°
2026-05-08 06:42 42.58693 11.94838 22484 ft 386 kts 349°
2026-05-08 06:43 42.61316 11.94243 22898 ft 388 kts 349°
2026-05-08 06:43 42.63999 11.93634 23307 ft 390 kts 349°
2026-05-08 06:43 42.66695 11.93021 23706 ft 393 kts 348°
2026-05-08 06:43 42.69379 11.92410 24094 ft 395 kts 348°
2026-05-08 06:44 42.72084 11.91794 24475 ft 397 kts 348°
2026-05-08 06:44 42.74797 11.91175 24866 ft 400 kts 348°
2026-05-08 06:44 42.77540 11.90548 25251 ft 402 kts 348°
2026-05-08 06:44 42.80321 11.89903 25631 ft 404 kts 347°
2026-05-08 06:45 42.83054 11.88965 25998 ft 405 kts 339°
2026-05-08 06:45 42.85648 11.87606 26361 ft 405 kts 332°
2026-05-08 06:45 42.88188 11.85860 26733 ft 406 kts 329°
2026-05-08 06:45 42.90659 11.84040 27090 ft 408 kts 328°
2026-05-08 06:46 42.93156 11.82182 27445 ft 410 kts 328°
2026-05-08 06:46 42.95636 11.80344 27789 ft 412 kts 328°
2026-05-08 06:46 42.98166 11.78477 28136 ft 414 kts 328°
2026-05-08 06:46 43.00699 11.76612 28480 ft 416 kts 328°
2026-05-08 06:47 43.03267 11.74723 28823 ft 418 kts 328°
2026-05-08 06:47 43.05835 11.72835 29158 ft 420 kts 328°
2026-05-08 06:47 43.08414 11.70936 29502 ft 422 kts 328°
2026-05-08 06:47 43.10983 11.69044 29845 ft 424 kts 328°
2026-05-08 06:48 43.13531 11.67166 30175 ft 426 kts 328°
2026-05-08 06:48 43.16130 11.65274 30497 ft 428 kts 330°
2026-05-08 06:48 43.18854 11.63581 30814 ft 432 kts 335°
2026-05-08 06:48 43.21696 11.62183 31130 ft 436 kts 339°
2026-05-08 06:49 43.24614 11.61113 31443 ft 439 kts 344°
2026-05-08 06:49 43.27638 11.60369 31739 ft 443 kts 349°
2026-05-08 06:49 43.30716 11.59946 32045 ft 446 kts 353°
2026-05-08 06:49 43.33820 11.59639 32353 ft 448 kts 353°
2026-05-08 06:50 43.36911 11.59356 32652 ft 450 kts 353°
2026-05-08 06:50 43.40051 11.59067 32927 ft 452 kts 353°
2026-05-08 06:50 43.43177 11.58772 33180 ft 454 kts 353°
2026-05-08 06:50 43.46309 11.58471 33443 ft 456 kts 353°
2026-05-08 06:51 43.49469 11.58164 33714 ft 457 kts 353°
2026-05-08 06:51 43.52634 11.57853 34013 ft 457 kts 353°
2026-05-08 06:51 43.55835 11.57538 34345 ft 456 kts 353°
2026-05-08 06:51 43.58962 11.57229 34667 ft 455 kts 353°
2026-05-08 06:52 43.62125 11.56915 34976 ft 455 kts 353°
2026-05-08 06:52 43.65262 11.56603 35285 ft 454 kts 352°
2026-05-08 06:52 43.68396 11.56291 35590 ft 454 kts 352°
2026-05-08 06:52 43.71561 11.55974 35895 ft 453 kts 352°
2026-05-08 06:53 43.74693 11.55660 36191 ft 452 kts 352°
2026-05-08 06:53 43.77832 11.55346 36398 ft 452 kts 352°
2026-05-08 06:53 43.80937 11.55034 36592 ft 451 kts 352°
2026-05-08 06:53 43.84066 11.54719 36778 ft 451 kts 352°
2026-05-08 06:54 43.87194 11.54405 36958 ft 451 kts 352°
2026-05-08 06:54 43.90288 11.54094 37130 ft 450 kts 352°
2026-05-08 06:54 43.93416 11.53779 37292 ft 450 kts 352°
2026-05-08 06:54 43.96551 11.53463 37443 ft 450 kts 352°
2026-05-08 06:55 43.99672 11.53149 37588 ft 450 kts 352°
2026-05-08 06:55 44.02765 11.52836 37715 ft 451 kts 352°
2026-05-08 06:55 44.05871 11.52524 37830 ft 451 kts 352°
2026-05-08 06:55 44.08997 11.52209 37919 ft 452 kts 352°
2026-05-08 06:56 44.15263 11.51574 37998 ft 453 kts 352°
2026-05-08 06:56 44.21532 11.50939 38033 ft 453 kts 352°
2026-05-08 06:57 44.27693 11.50312 38034 ft 452 kts 352°
2026-05-08 06:57 44.33959 11.49674 38026 ft 452 kts 352°
2026-05-08 06:58 44.40245 11.49033 38020 ft 452 kts 352°
2026-05-08 06:58 44.46503 11.48394 38020 ft 452 kts 352°
2026-05-08 06:59 44.52772 11.47751 38022 ft 452 kts 352°
2026-05-08 06:59 44.59027 11.47109 38025 ft 452 kts 352°
2026-05-08 07:00 44.65288 11.46464 38028 ft 452 kts 352°
2026-05-08 07:00 44.71550 11.45817 38030 ft 452 kts 352°
2026-05-08 07:01 44.77770 11.45173 38031 ft 451 kts 352°
2026-05-08 07:01 44.84014 11.44526 38031 ft 451 kts 352°
2026-05-08 07:02 44.90282 11.43874 38032 ft 451 kts 352°
2026-05-08 07:02 44.96516 11.43225 38033 ft 450 kts 352°
2026-05-08 07:03 45.02717 11.42578 38035 ft 450 kts 352°
2026-05-08 07:03 45.08970 11.41924 38036 ft 450 kts 352°
2026-05-08 07:04 45.15182 11.41273 38037 ft 450 kts 352°
2026-05-08 07:04 45.21392 11.40621 38037 ft 450 kts 352°
2026-05-08 07:05 45.27620 11.39965 38036 ft 450 kts 352°
2026-05-08 07:05 45.33863 11.39306 38029 ft 449 kts 352°
2026-05-08 07:06 45.40072 11.38650 38022 ft 449 kts 352°
2026-05-08 07:06 45.46311 11.37990 38024 ft 449 kts 351°
2026-05-08 07:07 45.52503 11.37330 38031 ft 449 kts 351°
2026-05-08 07:07 45.58723 11.36665 38039 ft 448 kts 351°
2026-05-08 07:08 45.64922 11.36003 38046 ft 448 kts 351°
2026-05-08 07:08 45.71132 11.35339 38050 ft 448 kts 351°
2026-05-08 07:09 45.77314 11.34677 38054 ft 447 kts 351°
2026-05-08 07:09 45.83511 11.34011 38026 ft 447 kts 351°
2026-05-08 07:10 45.89688 11.33345 37901 ft 447 kts 351°
2026-05-08 07:10 45.95894 11.32676 37720 ft 447 kts 351°
2026-05-08 07:11 46.02036 11.32013 37557 ft 446 kts 350°
2026-05-08 07:11 46.08212 11.31344 37693 ft 447 kts 350°
2026-05-08 07:12 46.11322 11.31006 37828 ft 446 kts 350°
2026-05-08 07:12 46.14386 11.30673 37943 ft 446 kts 350°
2026-05-08 07:12 46.20584 11.29997 38032 ft 446 kts 350°
2026-05-08 07:13 46.26739 11.29325 38081 ft 446 kts 350°
2026-05-08 07:13 46.32938 11.28646 38237 ft 445 kts 351°
2026-05-08 07:14 46.35976 11.28313 38428 ft 443 kts 351°
2026-05-08 07:14 46.39050 11.27977 38619 ft 441 kts 351°
2026-05-08 07:14 46.45192 11.27299 38618 ft 446 kts 351°
2026-05-08 07:15 46.48267 11.26959 38477 ft 448 kts 351°
2026-05-08 07:15 46.51364 11.26619 38320 ft 447 kts 351°
2026-05-08 07:15 46.57529 11.25942 38083 ft 446 kts 351°
2026-05-08 07:16 46.60628 11.25598 37808 ft 448 kts 351°
2026-05-08 07:16 46.63729 11.25255 37437 ft 447 kts 351°
2026-05-08 07:16 46.66786 11.24919 37171 ft 444 kts 351°
2026-05-08 07:16 46.69876 11.24577 36961 ft 443 kts 351°
2026-05-08 07:17 46.72901 11.24240 36787 ft 443 kts 351°
2026-05-08 07:17 46.75996 11.23895 36631 ft 443 kts 351°
2026-05-08 07:17 46.79062 11.23552 36517 ft 444 kts 350°
2026-05-08 07:17 46.82044 11.23219 36445 ft 444 kts 350°
2026-05-08 07:18 46.88285 11.22448 36345 ft 443 kts 347°
2026-05-08 07:18 46.94399 11.21127 36279 ft 442 kts 347°
2026-05-08 07:19 47.00526 11.20023 36234 ft 443 kts 348°
2026-05-08 07:19 47.06601 11.19001 36300 ft 443 kts 348°
2026-05-08 07:20 47.09676 11.18481 36433 ft 442 kts 348°
2026-05-08 07:20 47.12710 11.17967 36719 ft 437 kts 348°
2026-05-08 07:20 47.15698 11.17460 37032 ft 431 kts 348°
2026-05-08 07:20 47.18624 11.16960 37311 ft 427 kts 348°
2026-05-08 07:21 47.21566 11.16456 37550 ft 423 kts 348°
2026-05-08 07:21 47.24458 11.15958 37739 ft 422 kts 348°
2026-05-08 07:21 47.27369 11.15455 37872 ft 422 kts 348°
2026-05-08 07:21 47.30312 11.14945 37927 ft 425 kts 348°
2026-05-08 07:22 47.36223 11.13921 37926 ft 434 kts 348°
2026-05-08 07:22 47.42235 11.12880 37892 ft 440 kts 349°
2026-05-08 07:23 47.48306 11.11831 37850 ft 440 kts 349°
2026-05-08 07:23 47.54360 11.10782 37843 ft 440 kts 349°
2026-05-08 07:24 47.60431 11.09603 37945 ft 439 kts 347°
2026-05-08 07:24 47.66451 11.08222 38047 ft 439 kts 347°
2026-05-08 07:25 47.72373 11.06866 38073 ft 439 kts 347°
2026-05-08 07:26 47.81406 11.04814 38069 ft 439 kts 347°
2026-05-08 07:26 47.87394 11.03455 38067 ft 439 kts 347°
2026-05-08 07:27 47.93418 11.02085 38065 ft 439 kts 347°
2026-05-08 07:27 47.99425 11.00715 38066 ft 439 kts 347°
2026-05-08 07:28 48.05467 10.99334 38069 ft 439 kts 347°
2026-05-08 07:28 48.11457 10.97961 38050 ft 439 kts 347°
2026-05-08 07:29 48.17413 10.96595 38049 ft 438 kts 347°
2026-05-08 07:29 48.23387 10.95223 38075 ft 438 kts 347°
2026-05-08 07:30 48.29413 10.93833 38084 ft 439 kts 347°
2026-05-08 07:30 48.35415 10.92446 38087 ft 439 kts 347°
2026-05-08 07:31 48.41429 10.91052 38088 ft 439 kts 347°
2026-05-08 07:31 48.47276 10.89694 38088 ft 439 kts 347°
2026-05-08 07:32 48.53268 10.88298 38088 ft 439 kts 347°
2026-05-08 07:32 48.59276 10.86895 38088 ft 439 kts 347°
2026-05-08 07:33 48.65322 10.85480 38090 ft 439 kts 347°
2026-05-08 07:33 48.71334 10.84070 38092 ft 439 kts 347°
2026-05-08 07:34 48.77319 10.82662 38096 ft 439 kts 347°
2026-05-08 07:34 48.83372 10.81235 38097 ft 439 kts 347°
2026-05-08 07:35 48.89402 10.79810 38097 ft 439 kts 347°
2026-05-08 07:35 48.95426 10.78381 38099 ft 439 kts 347°
2026-05-08 07:36 49.01455 10.76946 38106 ft 439 kts 347°
2026-05-08 07:36 49.07480 10.75509 38110 ft 439 kts 347°
2026-05-08 07:37 49.13488 10.74054 38112 ft 439 kts 346°
2026-05-08 07:37 49.19310 10.71952 38114 ft 436 kts 340°
2026-05-08 07:38 49.25057 10.68749 38116 ft 433 kts 333°
2026-05-08 07:38 49.30514 10.64912 38119 ft 432 kts 332°
2026-05-08 07:39 49.35954 10.61002 38121 ft 432 kts 332°
2026-05-08 07:39 49.41353 10.57123 38123 ft 432 kts 332°
2026-05-08 07:40 49.46798 10.53210 38125 ft 433 kts 332°
2026-05-08 07:40 49.52242 10.49290 38124 ft 433 kts 332°
2026-05-08 07:41 49.57664 10.45377 38121 ft 433 kts 332°
2026-05-08 07:41 49.63108 10.41440 38119 ft 433 kts 332°
2026-05-08 07:42 49.68528 10.37512 38117 ft 433 kts 332°
2026-05-08 07:42 49.73967 10.33559 38118 ft 434 kts 331°
2026-05-08 07:43 49.79314 10.29663 38120 ft 433 kts 331°
2026-05-08 07:43 49.84764 10.25682 38119 ft 433 kts 331°
2026-05-08 07:44 49.90173 10.21721 38114 ft 433 kts 331°
2026-05-08 07:44 49.95634 10.17713 38111 ft 433 kts 331°
2026-05-08 07:45 50.01062 10.13719 38110 ft 434 kts 331°
2026-05-08 07:45 50.06478 10.09723 38108 ft 434 kts 331°
2026-05-08 07:46 50.11917 10.05701 38107 ft 434 kts 331°
2026-05-08 07:46 50.17319 10.01694 38108 ft 434 kts 331°
2026-05-08 07:47 50.22610 9.97762 38109 ft 434 kts 331°
2026-05-08 07:47 50.28052 9.93706 38109 ft 434 kts 331°
2026-05-08 07:48 50.33459 9.89666 38109 ft 435 kts 331°
2026-05-08 07:48 50.38900 9.85590 38108 ft 435 kts 331°
2026-05-08 07:49 50.44328 9.81513 38109 ft 435 kts 331°
2026-05-08 07:49 50.49766 9.77417 38109 ft 435 kts 331°
2026-05-08 07:50 50.55198 9.73315 38110 ft 435 kts 331°
2026-05-08 07:50 50.60638 9.69194 38111 ft 435 kts 331°
2026-05-08 07:51 50.66059 9.65020 38111 ft 435 kts 329°
2026-05-08 07:51 50.71155 9.60000 38111 ft 432 kts 321°
2026-05-08 07:52 50.75715 9.53925 38110 ft 429 kts 313°
2026-05-08 07:52 50.79679 9.46979 38109 ft 428 kts 307°
2026-05-08 07:53 50.83431 9.39741 38108 ft 427 kts 307°
2026-05-08 07:53 50.87204 9.32439 38110 ft 428 kts 306°
2026-05-08 07:54 50.90894 9.25296 38112 ft 428 kts 307°
2026-05-08 07:54 50.94642 9.18030 38118 ft 429 kts 307°
2026-05-08 07:55 50.98343 9.10837 38129 ft 429 kts 306°
2026-05-08 07:55 51.02105 9.03502 38136 ft 429 kts 306°
2026-05-08 07:56 51.05860 8.96159 38138 ft 429 kts 306°
2026-05-08 07:56 51.09598 8.88826 38139 ft 429 kts 306°
2026-05-08 07:57 51.13384 8.81523 38138 ft 430 kts 309°
2026-05-08 07:57 51.17487 8.74635 38140 ft 432 kts 311°
2026-05-08 07:58 51.21657 8.67804 38139 ft 432 kts 312°
2026-05-08 07:58 51.25834 8.60937 38117 ft 432 kts 311°
2026-05-08 07:59 51.29978 8.54095 38082 ft 432 kts 311°
2026-05-08 07:59 51.34148 8.47186 38074 ft 432 kts 312°
2026-05-08 08:00 51.38306 8.40280 38115 ft 433 kts 312°
2026-05-08 08:00 51.42469 8.33344 38131 ft 433 kts 311°
2026-05-08 08:01 51.46622 8.26404 38136 ft 433 kts 311°
2026-05-08 08:01 51.50743 8.19499 38138 ft 433 kts 311°
2026-05-08 08:02 51.54895 8.12522 38138 ft 433 kts 311°
2026-05-08 08:02 51.59045 8.05528 38138 ft 433 kts 311°
2026-05-08 08:03 51.63183 7.98534 38136 ft 433 kts 311°
2026-05-08 08:03 51.67290 7.91572 38136 ft 433 kts 311°
2026-05-08 08:04 51.71431 7.84532 38017 ft 434 kts 311°
2026-05-08 08:04 51.73507 7.80995 37825 ft 432 kts 311°
2026-05-08 08:04 51.75539 7.77530 37628 ft 430 kts 311°
2026-05-08 08:04 51.77585 7.74036 37356 ft 427 kts 311°
2026-05-08 08:05 51.79618 7.70559 36959 ft 426 kts 311°
2026-05-08 08:05 51.81625 7.67119 36484 ft 428 kts 311°
2026-05-08 08:05 51.83673 7.63605 35906 ft 432 kts 311°
2026-05-08 08:05 51.85731 7.60067 35269 ft 436 kts 311°
2026-05-08 08:06 51.87786 7.56529 34609 ft 440 kts 311°
2026-05-08 08:06 51.89885 7.52914 33916 ft 444 kts 311°
2026-05-08 08:06 51.92004 7.49258 33219 ft 446 kts 311°
2026-05-08 08:06 51.94076 7.45680 32727 ft 442 kts 311°
2026-05-08 08:07 51.96178 7.42044 32248 ft 437 kts 311°
2026-05-08 08:07 51.98213 7.38520 31630 ft 432 kts 311°
2026-05-08 08:07 52.00243 7.34997 31090 ft 424 kts 311°
2026-05-08 08:07 52.02236 7.31534 30618 ft 416 kts 310°
2026-05-08 08:08 52.04187 7.28138 30169 ft 409 kts 310°
2026-05-08 08:08 52.06097 7.24807 29766 ft 402 kts 310°
2026-05-08 08:08 52.07994 7.21496 29342 ft 397 kts 310°
2026-05-08 08:08 52.09831 7.18285 28919 ft 392 kts 310°
2026-05-08 08:09 52.11675 7.15054 28486 ft 388 kts 310°
2026-05-08 08:09 52.13494 7.11865 28045 ft 384 kts 310°
2026-05-08 08:09 52.15286 7.08719 27621 ft 380 kts 310°
2026-05-08 08:09 52.17057 7.05605 27208 ft 375 kts 310°
2026-05-08 08:10 52.18808 7.02524 26799 ft 371 kts 310°
2026-05-08 08:10 52.20544 6.99464 26399 ft 367 kts 310°
2026-05-08 08:10 52.22211 6.96378 25994 ft 363 kts 308°
2026-05-08 08:10 52.23811 6.93216 25584 ft 360 kts 307°
2026-05-08 08:11 52.25380 6.90076 25179 ft 357 kts 307°
2026-05-08 08:11 52.26940 6.86948 24776 ft 354 kts 307°
2026-05-08 08:11 52.28486 6.83843 24378 ft 352 kts 307°
2026-05-08 08:11 52.30011 6.80781 23987 ft 349 kts 307°
2026-05-08 08:12 52.31484 6.77823 23607 ft 347 kts 307°
2026-05-08 08:12 52.33006 6.74765 23220 ft 345 kts 307°
2026-05-08 08:12 52.34518 6.71726 22812 ft 343 kts 307°
2026-05-08 08:12 52.36016 6.68713 22405 ft 341 kts 307°
2026-05-08 08:13 52.37502 6.65718 22006 ft 339 kts 307°
2026-05-08 08:13 52.38972 6.62750 21611 ft 337 kts 307°
2026-05-08 08:13 52.40424 6.59813 21223 ft 335 kts 307°
2026-05-08 08:13 52.41893 6.56840 20829 ft 333 kts 307°
2026-05-08 08:14 52.43329 6.53931 20444 ft 331 kts 307°
2026-05-08 08:14 52.44775 6.50999 20062 ft 328 kts 307°
2026-05-08 08:14 52.46062 6.48013 19679 ft 324 kts 297°
2026-05-08 08:14 52.46886 6.44599 19287 ft 321 kts 283°
2026-05-08 08:15 52.47222 6.41016 18883 ft 319 kts 275°
2026-05-08 08:15 52.47399 6.37416 18533 ft 316 kts 274°
2026-05-08 08:15 52.47556 6.33884 18178 ft 314 kts 273°
2026-05-08 08:15 52.47720 6.30292 17810 ft 312 kts 273°
2026-05-08 08:16 52.47885 6.26780 17445 ft 310 kts 273°
2026-05-08 08:16 52.48052 6.23289 17082 ft 309 kts 274°
2026-05-08 08:16 52.48220 6.19802 16714 ft 307 kts 274°
2026-05-08 08:16 52.48388 6.16340 16342 ft 306 kts 274°
2026-05-08 08:17 52.48555 6.12879 15967 ft 305 kts 274°
2026-05-08 08:17 52.48721 6.09409 15587 ft 304 kts 274°
2026-05-08 08:17 52.48884 6.05991 15215 ft 303 kts 274°
2026-05-08 08:17 52.49049 6.02530 14839 ft 302 kts 274°
2026-05-08 08:18 52.49211 5.99123 14436 ft 303 kts 274°
2026-05-08 08:18 52.49375 5.95667 14031 ft 302 kts 274°
2026-05-08 08:18 52.49535 5.92274 13646 ft 302 kts 274°
2026-05-08 08:18 52.49696 5.88846 13264 ft 301 kts 274°
2026-05-08 08:19 52.49854 5.85421 12883 ft 299 kts 274°
2026-05-08 08:19 52.50009 5.82055 12509 ft 298 kts 274°
2026-05-08 08:19 52.50162 5.78681 12134 ft 297 kts 274°
2026-05-08 08:19 52.50312 5.75385 11767 ft 296 kts 274°
2026-05-08 08:20 52.50461 5.72053 11395 ft 295 kts 274°
2026-05-08 08:20 52.50611 5.68689 11020 ft 294 kts 274°
2026-05-08 08:20 52.50758 5.65378 10650 ft 293 kts 274°
2026-05-08 08:20 52.50903 5.62090 10284 ft 292 kts 274°
2026-05-08 08:21 52.51025 5.58811 10134 ft 280 kts 269°
2026-05-08 08:21 52.50825 5.55707 10055 ft 277 kts 257°
2026-05-08 08:21 52.50262 5.52634 10076 ft 284 kts 251°
2026-05-08 08:21 52.49628 5.49556 10023 ft 287 kts 253°
2026-05-08 08:22 52.49088 5.46402 9892 ft 287 kts 255°
2026-05-08 08:22 52.48570 5.43218 9767 ft 288 kts 255°
2026-05-08 08:22 52.48052 5.40059 9643 ft 287 kts 255°
2026-05-08 08:22 52.47528 5.36912 9519 ft 287 kts 255°
2026-05-08 08:23 52.47017 5.33871 9399 ft 286 kts 253°
2026-05-08 08:23 52.46485 5.30738 9266 ft 286 kts 253°
2026-05-08 08:23 52.45949 5.27599 9133 ft 286 kts 253°
2026-05-08 08:23 52.45419 5.24502 9002 ft 285 kts 253°
2026-05-08 08:24 52.44879 5.21361 8869 ft 285 kts 253°
2026-05-08 08:24 52.44344 5.18257 8744 ft 285 kts 253°
2026-05-08 08:24 52.43804 5.15124 8618 ft 285 kts 253°
2026-05-08 08:24 52.43262 5.11994 8492 ft 284 kts 253°
2026-05-08 08:25 52.42726 5.08901 8367 ft 284 kts 253°
2026-05-08 08:25 52.42185 5.05785 8241 ft 284 kts 253°
2026-05-08 08:25 52.41650 5.02712 8117 ft 283 kts 253°
2026-05-08 08:25 52.41109 4.99610 7991 ft 282 kts 253°
2026-05-08 08:26 52.40570 4.96525 7866 ft 282 kts 253°
2026-05-08 08:26 52.40034 4.93459 7741 ft 281 kts 253°
2026-05-08 08:26 52.39500 4.90417 7616 ft 280 kts 253°
2026-05-08 08:26 52.38966 4.87369 7491 ft 280 kts 253°
2026-05-08 08:27 52.38428 4.84312 7364 ft 279 kts 253°
2026-05-08 08:27 52.37893 4.81273 7220 ft 278 kts 253°
2026-05-08 08:27 52.37360 4.78254 6968 ft 274 kts 253°
2026-05-08 08:27 52.36832 4.75268 6541 ft 274 kts 253°
2026-05-08 08:28 52.36307 4.72307 6162 ft 273 kts 253°
2026-05-08 08:28 52.35779 4.69332 5796 ft 271 kts 253°
2026-05-08 08:28 52.35257 4.66392 5430 ft 269 kts 253°
2026-05-08 08:28 52.34604 4.63536 5055 ft 267 kts 244°
2026-05-08 08:29 52.33718 4.60915 4691 ft 265 kts 238°
2026-05-08 08:29 52.32739 4.58367 4323 ft 263 kts 237°
2026-05-08 08:29 52.31753 4.55849 3934 ft 262 kts 237°
2026-05-08 08:29 52.30786 4.53376 3547 ft 260 kts 237°
2026-05-08 08:30 52.29815 4.50887 3145 ft 260 kts 237°
2026-05-08 08:30 52.28857 4.48419 3009 ft 249 kts 237°
2026-05-08 08:30 52.27016 4.44079 2894 ft 221 kts 217°
2026-05-08 08:31 52.25621 4.43216 2580 ft 216 kts 179°
2026-05-08 08:31 52.24205 4.43760 2237 ft 212 kts 149°
2026-05-08 08:31 52.22983 4.45051 2020 ft 209 kts 145°
2026-05-08 08:31 52.21821 4.46498 2000 ft 209 kts 129°
2026-05-08 08:32 52.21236 4.48604 1998 ft 199 kts 104°
2026-05-08 08:32 52.20890 4.50650 2071 ft 181 kts 106°
2026-05-08 08:32 52.20653 4.52645 2014 ft 179 kts 86°
2026-05-08 08:32 52.21135 4.54446 2009 ft 175 kts 57°
2026-05-08 08:33 52.21837 4.55932 2018 ft 161 kts 54°
2026-05-08 08:33 52.22519 4.57385 2009 ft 159 kts 54°
2026-05-08 08:33 52.23171 4.58833 2008 ft 159 kts 56°
2026-05-08 08:33 52.23791 4.60332 1930 ft 160 kts 58°
2026-05-08 08:34 52.24383 4.61852 1718 ft 158 kts 59°
2026-05-08 08:34 52.24945 4.63329 1504 ft 146 kts 60°
2026-05-08 08:34 52.25449 4.64658 1286 ft 133 kts 60°
2026-05-08 08:34 52.25936 4.65942 1121 ft 132 kts 60°
2026-05-08 08:35 52.26420 4.67210 959 ft 132 kts 59°
2026-05-08 08:35 52.26890 4.68433 779 ft 131 kts 59°
2026-05-08 08:35 52.27373 4.69698 578 ft 130 kts 60°
2026-05-08 08:35 52.27842 4.70949 422 ft 130 kts 60°
2026-05-08 08:36 52.28318 4.72192 249 ft 129 kts 59°
2026-05-08 08:36 52.28805 4.73439 67 ft 128 kts 59°
2026-05-08 08:36 52.29266 4.74639 0 ft 112 kts 59°
2026-05-08 08:36 52.29583 4.75477 0 ft 61 kts 55°
2026-05-08 08:37 52.29708 4.75734 0 ft 21 kts 29°
2026-05-08 08:37 52.29834 4.75846 0 ft 20 kts 30°
2026-05-08 08:37 52.29956 4.75956 0 ft 13 kts 27°
2026-05-08 08:37 52.30022 4.76058 0 ft 13 kts 57°
2026-05-08 08:38 52.30072 4.76191 0 ft 14 kts 59°
2026-05-08 08:38 52.30123 4.76332 0 ft 14 kts 59°
2026-05-08 08:38 52.30184 4.76491 0 ft 18 kts 58°
2026-05-08 08:38 52.30238 4.76632 0 ft 3 kts 59°
2026-05-08 08:39 52.30272 4.76710 0 ft 12 kts 41°
2026-05-08 08:39 52.30341 4.76676 0 ft 12 kts 291°
2026-05-08 08:39 52.30382 4.76569 0 ft 8 kts 321°
2026-05-08 08:39 52.30399 4.76568 0 ft 0 kts 53°
2026-05-08 08:40 52.30402 4.76569 0 ft 0 kts 25°
2026-05-08 08:40 52.30409 4.76572 0 ft 1 kts 18°
2026-05-08 08:40 52.30415 4.76580 0 ft 0 kts 37°
2026-05-08 08:40 52.30420 4.76583 0 ft 1 kts 30°
2026-05-08 08:41 52.30422 4.76589 0 ft 0 kts 56°
2026-05-08 08:41 52.30427 4.76600 0 ft 1 kts 54°
2026-05-08 08:41 52.30428 4.76601 0 ft 0 kts 54°